Weather History for Niagara Falls, NY

Change the Weather History Date:

Wednesday, May 14, 2014

  Actual Average Record
Temperature  
Mean Temperature 64 °F -  
Max Temperature 71 °F 64 °F 82 °F (1991)
Min Temperature 59 °F 43 °F 34 °F (2013)
Growing Degree Days 14 (Base 50)    
Moisture  
Dew Point 61 °F    
Average Humidity 88    
Maximum Humidity 96    
Minimum Humidity 73    
Precipitation  
Precipitation 0.30 in - - ()
Sea Level Pressure  
Sea Level Pressure 30.06 in    
Wind  
Wind Speed 7 mph (NW)    
Max Wind Speed 23 mph    
Max Gust Speed 38 mph    
Visibility 6 miles    
Events Rain , Thunderstorm    
Averages and records for this station are not official NWS values.
T = Trace of Precipitation, MM = Missing Value Source: NWS Daily Summary

Daily Weather History Graph

Daily Weather History Graph

Search for Another Location

Airport:

Trip Planner

Search our weather history database for the weather conditions in past years. The results will help you decide how hot, cold, wet, or windy it might be!

Date:

Astronomy

May. 14, 2014 Rise Set
Actual Time 5:53 AM EDT 8:31 PM EDT
Civil Twilight 5:20 AM EDT 9:04 PM EDT
Nautical Twilight 4:39 AM EDT 9:45 PM EDT
Astronomical Twilight 3:53 AM EDT 10:32 PM EDT
Moon 8:34 PM EDT (5/14) 5:52 AM EDT (5/14)
Length of Visible Light 15h 43m
Length of Day
14h 38m
Full, 100% of the Moon is Illuminated
May 14
Full
May 14
Full
May 21
Last Quarter
May 28
New
Jun 5
First Quarter

Hourly Weather History & Observations

Time (EDT) Temp. Dew Point Humidity Pressure Visibility Wind Dir Wind Speed Gust Speed Precip Events Conditions
12:53 AM 62.1 °F 60.1 °F 93% 30.01 in 6.0 mi SSE 6.9 mph - 0.00 in   Partly Cloudy
1:53 AM 63.0 °F 60.1 °F 90% 30.01 in 8.0 mi South 3.5 mph - N/A   Partly Cloudy
2:53 AM 63.0 °F 60.1 °F 90% 30.01 in 7.0 mi SSE 3.5 mph - N/A   Mostly Cloudy
3:53 AM 64.4 °F 60.8 °F 88% 30.05 in 10.0 mi SSW 9.2 mph - N/A   Overcast
4:53 AM 64.0 °F 61.0 °F 90% 30.04 in 9.0 mi SW 6.9 mph - N/A   Overcast
5:53 AM 63.0 °F 59.0 °F 87% 30.05 in 10.0 mi SSW 5.8 mph - N/A   Mostly Cloudy
6:53 AM 63.0 °F 60.1 °F 90% 30.06 in 8.0 mi WSW 4.6 mph - N/A   Overcast
7:02 AM 63.0 °F 60.1 °F 90% 30.07 in 7.0 mi West 4.6 mph - 0.00 in   Overcast
7:49 AM 64.4 °F 62.6 °F 94% 30.08 in 6.0 mi SW 3.5 mph - 0.00 in Rain Light Rain
7:53 AM 64.0 °F 62.1 °F 93% 30.07 in 5.0 mi SSW 3.5 mph - 0.00 in Rain Light Rain
8:15 AM 64.9 °F 62.1 °F 90% 30.07 in 6.0 mi SSW 4.6 mph - 0.00 in   Overcast
8:36 AM 64.9 °F 62.1 °F 90% 30.08 in 6.0 mi SW 6.9 mph - 0.00 in Rain Light Rain
8:53 AM 64.9 °F 62.1 °F 90% 30.09 in 6.0 mi SSW 8.1 mph - 0.00 in Rain Light Rain
9:00 AM 64.9 °F 63.0 °F 93% 30.08 in 6.0 mi SSW 5.8 mph - 0.00 in Rain Light Rain
9:13 AM 66.0 °F 63.0 °F 90% 30.09 in 6.0 mi SSW 6.9 mph - 0.00 in   Overcast
9:26 AM 66.0 °F 63.0 °F 90% 30.09 in 6.0 mi SSW 6.9 mph - 0.00 in Rain Light Rain
9:42 AM 66.0 °F 64.0 °F 93% 30.08 in 6.0 mi WSW 5.8 mph - 0.00 in   Overcast
9:53 AM 66.0 °F 63.0 °F 90% 30.09 in 6.0 mi West 6.9 mph - 0.00 in   Overcast
10:57 AM 63.0 °F 60.1 °F 90% 30.10 in 1.8 mi NNW 9.2 mph - N/A   Overcast
11:01 AM 63.0 °F 61.0 °F 93% 30.10 in 1.0 mi NNW 9.2 mph - N/A   Overcast
11:53 AM 62.1 °F 61.0 °F 96% 30.11 in 1.0 mi NNE 4.6 mph - N/A   Overcast
12:01 PM 63.0 °F 61.0 °F 93% 30.11 in 1.5 mi Calm Calm - N/A   Overcast
12:17 PM 64.0 °F 61.0 °F 90% 30.10 in 2.0 mi North 3.5 mph - N/A   Overcast
12:30 PM 64.9 °F 61.0 °F 87% 30.11 in 2.5 mi North 3.5 mph - N/A   Overcast
12:43 PM 66.2 °F 62.6 °F 88% 30.10 in 3.0 mi Calm Calm - N/A   Overcast
12:53 PM 66.0 °F 62.1 °F 87% 30.10 in 3.0 mi North 4.6 mph - N/A   Overcast
1:18 PM 66.0 °F 62.1 °F 87% 30.10 in 4.0 mi NNW 6.9 mph - N/A   Mostly Cloudy
1:37 PM 66.9 °F 62.1 °F 84% 30.09 in 5.0 mi Variable 4.6 mph - N/A   Haze
1:53 PM 68.0 °F 62.1 °F 81% 30.08 in 6.0 mi Variable 4.6 mph - N/A   Haze
2:35 PM 68.0 °F 62.1 °F 81% 30.07 in 4.0 mi North 6.9 mph - N/A   Haze
2:53 PM 68.0 °F 61.0 °F 78% 30.07 in 5.0 mi NNE 10.4 mph - N/A   Haze
3:07 PM 69.1 °F 61.0 °F 75% 30.06 in 5.0 mi North 10.4 mph - N/A   Haze
3:53 PM 70.0 °F 61.0 °F 73% 30.04 in 9.0 mi North 11.5 mph - N/A   Mostly Cloudy
4:53 PM 69.1 °F 60.1 °F 73% 30.01 in 9.0 mi NNE 13.8 mph - N/A   Mostly Cloudy
5:53 PM 66.9 °F 60.1 °F 79% 30.02 in 8.0 mi NE 12.7 mph - N/A   Mostly Cloudy
6:38 PM 66.0 °F 60.1 °F 81% 30.02 in 8.0 mi NE 12.7 mph - N/A   Mostly Cloudy
6:45 PM 66.0 °F 60.1 °F 81% 30.01 in 8.0 mi NE 12.7 mph - N/A Thunderstorm Thunderstorm
6:53 PM 66.0 °F 60.1 °F 81% 30.01 in 7.0 mi ENE 11.5 mph - 0.01 in Rain , Thunderstorm Light Thunderstorms and Rain
7:15 PM 64.9 °F 61.0 °F 87% 30.06 in 7.0 mi WNW 16.1 mph - 0.02 in Rain , Thunderstorm Light Thunderstorms and Rain
7:28 PM 60.1 °F 55.9 °F 86% 30.07 in 2.5 mi WNW 23.0 mph 38.0 mph 0.11 in Rain , Thunderstorm Heavy Thunderstorms and Rain
7:37 PM 59.0 °F 57.0 °F 93% 30.04 in 4.0 mi NNW 23.0 mph - 0.16 in Rain , Thunderstorm Heavy Thunderstorms and Rain
7:53 PM 60.1 °F 57.0 °F 90% 30.05 in 5.0 mi North 13.8 mph - 0.21 in Rain , Thunderstorm Thunderstorms and Rain
8:53 PM 60.1 °F 57.9 °F 93% 30.04 in 10.0 mi NE 6.9 mph - 0.06 in Rain , Thunderstorm Light Thunderstorms and Rain
9:11 PM 60.1 °F 57.9 °F 93% 30.06 in 10.0 mi NW 8.1 mph 20.7 mph 0.00 in Rain , Thunderstorm Light Thunderstorms and Rain
9:53 PM 59.0 °F 57.0 °F 93% 30.03 in 10.0 mi East 10.4 mph - 0.02 in Rain , Thunderstorm Light Thunderstorms and Rain
10:03 PM 59.0 °F 57.0 °F 93% 30.03 in 10.0 mi East 9.2 mph - 0.00 in   Mostly Cloudy
10:53 PM 59.0 °F 57.0 °F 93% 30.01 in 10.0 mi East 9.2 mph - 0.00 in   Overcast
11:53 PM 60.1 °F 57.9 °F 93% 30.00 in 10.0 mi SE 11.5 mph - 0.00 in   Mostly Cloudy